Flag for Germany Weather past 2 weeks in Meissen, Saxony, Germany

Now
46 °F

Passing clouds.


Feels Like: 41 °F
Forecast: 39 / 51 °F
Wind: 10 mph from West

Location: Dresden-Klotzsche

Current Time: Apr 21, 2015 at 8:59:28 AM

Latest Report: Apr 21, 2015 at 8:20 AM


Visibility: N/A

Pressure: 30.30 "Hg

Humidity: 66%

Dew point: 36 °F

Location of MeissenLocation

Historic Weather in Meissen — Graph

°F

Meissen temperature yesterday

Maximum temperature yesterday: 63 °F (at 4:20 PM)
Minimum temperature yesterday: 39 °F (at 3:20 AM)
Average temperature yesterday: 50 °F

Past Weeks' High & Low Weather Summary

 TemperatureHumidityPressure
High70 °F (Apr 15, 3:20 PM)93% (Apr 7, 4:20 AM)30.57 "Hg (Apr 7, 4:20 AM)
Low30 °F (Apr 7, 3:50 AM)28% (Apr 12, 1:50 PM)29.89 "Hg (Apr 15, 6:50 PM)
Average48 °F64%30.22 "Hg
* Reported Apr 6 7:20 AM — Apr 21 7:20 AM, Meissen, Weather by CustomWeather, © 2015

Note: Actual official high and low records may vary slightly from our data, if they occured in-between our weather recording intervals... More about our weather records

Advertising

Meissen weather history for previous 24 hours

 ConditionsComfort  
Time TempWeatherWind HumidityBarometerVisibility
7:20 AM
Tue, Apr 21
43 °FSunny.8 mph71%30.30 "Hg10 mi
6:50 AM41 °FClear.8 mph76%30.30 "Hg10 mi
6:20 AM39 °FClear.7 mph75%30.30 "Hg10 mi
5:20 AM39 °FClear.6 mph75%30.30 "Hg10 mi
4:50 AM41 °FPassing clouds.3 mph76%30.30 "HgN/A
4:20 AM41 °FPassing clouds.3 mph70%30.30 "HgN/A
3:50 AM45 °FClear.3 mph61%30.30 "Hg10 mi
3:20 AM43 °FClear.1 mph66%30.30 "Hg10 mi
2:50 AM43 °FClear.3 mph66%30.30 "Hg10 mi
2:20 AM43 °FClear.2 mph71%30.30 "Hg10 mi
1:50 AM43 °FPassing clouds.3 mph71%30.30 "HgN/A
1:20 AM43 °FClear.2 mph66%30.30 "Hg10 mi
12:50 AM45 °FClear.3 mph66%30.30 "Hg10 mi
12:20 AM45 °FClear.3 mph66%30.30 "Hg10 mi
11:50 PM
Mon, Apr 20
46 °FClear.5 mph62%30.30 "Hg10 mi
11:20 PM46 °FClear.6 mph62%30.27 "Hg10 mi
10:50 PM48 °FClear.7 mph58%30.27 "Hg10 mi
10:20 PM50 °FClear.9 mph50%30.27 "Hg10 mi
9:50 PM52 °FClear.12 mph50%30.27 "Hg10 mi
9:20 PM54 °FClear.10 mph47%30.24 "Hg10 mi
8:50 PM55 °FSunny.10 mph44%30.24 "Hg10 mi
8:20 PM55 °FSunny.8 mph44%30.21 "Hg10 mi
7:50 PM57 °FSunny.8 mph41%30.21 "Hg10 mi
7:20 PM59 °FSunny.12 mph39%30.21 "Hg10 mi
6:50 PM61 °FSunny.9 mph36%30.18 "Hg10 mi
6:20 PM61 °FPassing clouds.13 mph34%30.18 "HgN/A
5:50 PM63 °FPassing clouds.14 mph37%30.18 "HgN/A
5:20 PM63 °FSunny.13 mph34%30.18 "Hg10 mi
4:50 PM63 °FSunny.14 mph32%30.18 "Hg10 mi
4:20 PM63 °FPassing clouds.14 mph37%30.18 "HgN/A
3:50 PM61 °FPassing clouds.15 mph39%30.18 "HgN/A
3:20 PM61 °FPassing clouds.16 mph39%30.18 "HgN/A
2:50 PM59 °FPassing clouds.16 mph45%30.21 "HgN/A
2:20 PM59 °FPassing clouds.14 mph45%30.21 "HgN/A
1:50 PM59 °FPassing clouds.13 mph48%30.21 "HgN/A
1:20 PM59 °FPassing clouds.15 mph48%30.21 "HgN/A
12:50 PM55 °FPassing clouds.12 mph47%30.21 "HgN/A
12:20 PM55 °FPassing clouds.13 mph51%30.21 "HgN/A
11:50 AM54 °FPassing clouds.14 mph54%30.24 "HgN/A
11:20 AM52 °FPassing clouds.14 mph54%30.24 "HgN/A
10:50 AM52 °FPassing clouds.15 mph58%30.24 "HgN/A
10:20 AM50 °FPassing clouds.13 mph62%30.24 "HgN/A
9:50 AM48 °FPassing clouds.10 mph62%30.21 "HgN/A
9:20 AM48 °FPassing clouds.10 mph66%30.21 "HgN/A
8:50 AM46 °FPassing clouds.10 mph66%30.21 "HgN/A
8:20 AM45 °FSunny.7 mph71%30.21 "Hg10 mi
Weather by CustomWeather, © 2015

See weather overviewHow to use our weather pages